Wind_Speed
18 20 24 20 18 16 16 16 17 18 19 20 20 20 21 23 24 24 22 20 20 18 16 14 14 9 10 12 11 8 7 4 3 4 6 9 12 14 16 17 19 20 21 22 23 25 25
22 20 23 24 22 18 18 19 20 21 22 23 23 23 24 26 27 27 25 24 23 21 18 14 14 12 13 13 11 10 8 6 6 6 8 10 13 16 19 21 22 22 23 24 25 27 27
22 21 24 25 24 22 20 21 23 24 25 26 26 27 27 29 32 32 30 29 28 24 20 16 15 14 16 15 12 11 10 9 7 7 9 13 18 22 24 25 25 24 24 26 26 28 29
22 23 25 26 25 23 22 22 24 25 26 27 27 28 30 31 33 35 34 31 31 27 23 18 17 17 17 16 13 13 13 12 11 12 15 18 23 26 28 27 27 26 26 27 27 30 31
23 23 25 26 25 24 23 23 24 25 25 24 25 26 27 31 36 37 35 33 32 29 24 20 18 19 19 18 16 16 17 17 17 18 20 23 26 29 31 29 28 28 29 29 31 32 33
20 24 25 24 24 24 24 23 24 23 23 23 22 23 24 29 32 32 31 32 31 29 25 22 20 20 20 19 17 17 19 20 22 22 24 27 29 31 32 30 29 30 32 32 33 34 35
22 24 24 23 24 22 22 23 22 21 20 20 19 16 19 16 14 16 21 26 28 26 24 21 21 20 19 17 17 18 21 22 24 25 27 29 31 34 32 31 32 32 33 34 35 37 38
24 25 23 22 21 21 22 21 20 19 19 18 15 13 15 14 9 2 6 12 17 19 19 19 19 17 16 16 18 20 24 25 26 27 28 31 34 35 32 32 33 35 35 36 37 36 39
25 24 21 21 22 23 22 21 19 19 18 16 13 12 10 11 11 8 5 5 9 12 14 15 14 14 15 17 20 22 25 27 28 29 31 35 37 35 34 35 37 37 38 38 38 38 39
28 26 22 22 24 24 23 22 20 19 17 14 13 12 9 7 5 5 5 6 8 9 10 12 14 16 19 21 23 25 27 28 30 34 38 39 38 36 37 39 39 38 38 39 38 39 41
26 25 23 23 26 24 23 21 21 18 16 14 14 13 12 10 7 5 3 4 6 9 11 14 17 19 22 24 26 28 30 33 36 38 40 40 41 41 41 41 41 41 40 39 39 39 40
25 26 25 24 25 24 23 22 20 18 15 15 15 14 14 13 12 12 12 13 13 15 17 19 21 24 27 30 32 35 37 39 39 41 43 45 45 44 43 43 42 40 40 38 38 39 41
29 27 27 26 25 25 25 23 20 17 15 15 16 16 15 16 16 16 17 18 20 22 23 25 28 30 32 34 35 37 40 42 42 42 44 45 44 42 41 39 39 40 39 38 38 40 42
32 30 30 28 28 27 26 23 22 20 19 17 18 18 18 18 18 19 21 23 24 25 27 29 31 33 35 37 39 40 41 42 42 42 43 46 48 43 41 40 41 41 41 41 41 42 44
34 33 33 30 30 30 29 27 25 24 22 21 21 21 21 22 22 23 25 26 27 29 31 33 35 36 37 38 40 41 44 45 46 46 45 43 49 48 44 41 41 42 43 45 46 48 49
39 36 35 32 31 33 32 30 29 27 27 26 26 27 26 27 28 29 31 32 33 34 35 36 37 39 39 41 42 44 46 46 47 46 44 41 45 49 45 41 41 43 45 48 50 51 51
37 36 37 33 32 34 35 34 33 32 31 30 30 30 30 31 32 34 36 37 39 39 39 41 41 41 43 44 46 47 47 47 48 45 46 43 44 46 44 42 44 48 50 52 52 54 58
32 36 38 35 33 33 36 37 36 36 36 35 34 34 35 36 38 40 42 44 46 47 48 48 48 48 49 49 48 50 49 50 50 48 46 44 42 44 48 45 46 48 54 53 53 52 55
33 36 37 37 38 38 37 38 40 40 40 39 39 39 40 40 41 42 45 48 50 51 53 53 53 53 52 52 52 50 49 48 47 46 43 41 43 41 46 49 48 50 54 53 52 53 56
31 34 37 39 40 40 39 40 41 41 42 43 44 44 44 43 44 43 43 46 46 46 46 46 47 47 47 48 46 41 41 42 43 44 44 42 46 49 49 53 52 48 53 56 55 62 63
32 33 34 35 36 36 37 39 40 43 43 44 43 42 43 44 46 46 46 44 41 38 37 37 37 38 40 40 39 41 41 42 43 46 48 49 50 56 58 60 51 47 56 59 64 73 72
33 33 36 38 38 38 38 39 40 41 42 42 42 43 44 46 49 51 50 46 44 41 41 43 45 45 45 46 42 40 42 46 49 51 56 60 62 63 58 64 61 53 63 67 71 77 79
40 39 38 39 38 37 39 41 41 41 41 43 46 47 49 48 48 51 49 40 36 40 40 44 46 46 48 48 49 50 53 55 57 60 63 65 69 69 64 66 64 59 65 75 78 82 83
36 37 40 42 43 41 40 42 47 47 46 48 47 48 47 45 47 48 42 38 46 49 49 54 55 54 55 57 59 61 64 65 68 68 72 76 77 73 68 67 62 63 76 80 79 81 85
45 42 43 44 45 45 45 45 42 42 44 46 48 47 46 46 49 52 50 54 56 58 60 62 66 64 64 65 66 64 67 69 71 70 74 79 77 76 73 71 68 78 88 89 88 86 90
52 52 51 52 52 50 51 50 51 51 53 53 53 53 51 49 54 57 60 64 65 68 68 70 72 73 72 74 64 67 70 65 63 65 70 77 79 77 77 85 85 87 94 97 99 93 96
60 58 58 59 61 60 60 61 61 60 61 60 60 60 59 57 61 65 69 71 74 75 71 68 70 72 77 72 73 73 67 68 68 73 77 82 84 85 89 91 89 98 96 97 99 99 106
62 62 64 65 66 67 66 67 67 69 69 68 66 66 64 59 65 65 69 72 75 79 78 74 68 73 76 77 78 84 79 77 78 82 85 91 93 94 95 98 98 100 105 105 104 110 111
70 70 69 71 72 72 74 76 76 76 76 74 74 74 72 70 71 69 71 77 78 80 81 79 83 85 82 83 83 85 83 82 88 89 93 94 96 97 100 100 107 106 106 111 114 115 118
Wind_Direction
242 244 239 242 249 246 247 247 239 234 236 237 238 239 241 242 248 254 258 262 268 272 282 301 309 267 227 203 199 206 208 207 250 288 312 320 324 326 321 317 315 314 313 313 312 310 304
242 245 244 239 244 247 246 248 247 242 242 243 248 249 251 251 250 255 259 259 262 267 274 286 299 268 230 212 212 221 216 226 253 291 313 318 328 329 323 318 313 311 311 312 312 310 309
238 242 242 239 241 246 248 249 250 249 247 248 252 255 258 258 254 255 259 257 258 259 266 274 285 262 230 218 220 226 228 243 260 292 308 316 322 324 321 314 310 308 308 309 309 308 307
238 246 240 239 237 244 248 251 248 250 251 254 259 263 265 264 262 258 256 255 254 254 258 266 274 261 238 226 227 232 239 251 271 290 301 309 316 319 318 314 307 304 304 306 308 308 306
236 246 239 233 235 241 250 250 248 251 253 258 263 270 276 276 267 259 253 250 249 250 254 259 266 255 240 232 235 242 248 261 274 284 291 300 309 313 315 311 306 303 303 306 308 309 306
238 239 227 228 233 241 246 244 247 247 254 261 269 284 296 291 276 265 254 247 244 244 249 254 256 246 234 231 244 254 260 269 274 279 286 295 303 308 310 307 307 302 302 305 305 308 308
231 220 222 225 235 237 238 240 241 246 253 261 278 293 319 313 286 256 246 239 236 238 241 246 245 237 230 238 254 263 266 270 275 280 284 291 300 305 307 305 304 303 303 303 303 308 308
219 220 222 227 229 230 233 236 240 243 253 268 275 296 329 0 16 28 218 221 223 226 229 232 233 228 238 254 266 268 269 274 279 282 288 293 299 303 302 301 302 302 303 303 304 306 306
222 217 219 225 229 229 230 236 237 244 254 262 267 282 319 3 29 53 90 158 187 202 212 218 221 235 253 265 269 272 277 283 287 289 292 296 299 300 299 299 299 299 301 301 304 305 304
219 220 223 230 226 228 231 235 240 246 255 255 258 270 290 323 3 47 90 135 163 184 203 221 240 255 264 270 276 281 285 288 290 293 295 297 298 298 298 297 296 297 299 300 302 303 304
223 225 224 229 226 228 232 233 241 247 253 253 256 263 275 284 280 287 265 233 226 230 243 252 262 269 275 279 282 285 288 290 291 293 295 295 295 298 299 297 297 296 297 298 299 300 301
221 227 225 230 230 231 232 233 240 246 251 250 257 261 264 267 271 273 269 264 260 261 262 268 274 278 281 282 285 287 289 291 292 293 295 295 296 296 296 295 295 295 295 297 299 299 301
223 226 229 230 233 232 233 237 239 244 250 254 258 262 267 271 274 273 273 271 271 272 274 275 277 279 283 285 286 288 289 291 294 295 297 297 297 298 296 291 292 292 294 297 299 298 299
228 225 231 231 234 235 235 236 240 245 249 253 259 263 265 268 272 274 274 274 276 277 278 279 280 282 283 286 288 290 291 293 295 296 298 299 299 300 295 289 290 292 290 291 291 291 294
234 227 229 231 235 239 239 239 243 249 253 258 262 266 271 273 273 273 273 274 276 278 279 279 280 283 286 288 288 289 291 294 296 296 297 299 300 300 297 291 289 291 292 293 293 295 294
232 226 227 230 234 240 243 243 247 251 256 261 266 269 273 275 276 278 278 278 277 278 280 281 283 286 289 291 292 292 291 292 291 292 298 297 298 298 297 294 292 292 292 293 296 299 298
222 223 227 231 237 242 246 248 250 254 258 262 267 271 275 278 281 283 283 282 283 283 283 284 285 286 289 292 295 294 292 292 294 293 293 294 294 294 296 296 294 295 296 300 302 304 305
223 227 228 233 238 245 251 254 256 257 259 263 266 271 275 280 284 284 286 286 286 286 287 287 287 289 293 293 291 291 294 292 292 292 292 291 289 290 295 297 298 301 301 302 304 308 309
226 229 233 238 243 247 252 256 259 262 264 265 269 272 276 281 284 286 290 292 289 286 284 284 286 289 290 289 288 291 291 292 293 294 292 289 289 290 294 297 298 300 297 301 306 309 310
236 240 241 245 249 251 255 258 259 262 265 267 271 273 276 280 282 287 292 297 294 290 290 288 288 289 290 290 289 289 288 291 293 293 292 293 292 292 291 291 293 293 296 298 304 303 303
238 240 244 247 251 254 256 258 259 262 263 267 270 273 275 279 284 286 289 294 299 300 298 296 295 295 292 292 295 292 293 294 296 296 296 295 294 295 298 295 294 296 294 296 300 305 311
242 245 249 252 255 257 258 259 260 262 266 268 269 272 276 279 282 284 286 287 293 294 293 292 293 294 292 293 295 292 291 292 296 298 299 300 297 295 296 293 288 293 293 301 307 307 310
247 253 253 252 253 255 257 258 260 262 265 268 272 273 276 280 282 283 286 287 286 290 292 293 294 296 296 296 295 295 294 295 298 297 298 300 299 296 296 290 284 289 297 302 303 304 304
251 253 253 256 257 257 259 260 260 261 262 264 266 271 275 279 284 288 287 287 288 291 293 293 294 294 294 295 296 297 297 297 299 299 299 298 296 294 295 289 286 285 294 294 297 302 302
253 254 255 254 257 260 265 270 268 269 273 273 276 284 287 283 284 283 285 287 289 289 290 292 293 294 293 292 296 299 299 296 296 300 300 299 296 295 294 291 287 292 296 298 302 306 307
254 256 255 255 258 262 264 268 271 271 273 274 276 277 278 278 281 281 283 285 287 289 292 295 296 295 294 292 294 303 301 296 298 298 297 302 293 291 294 298 300 299 295 298 299 303 305
251 254 259 260 260 262 267 267 267 269 270 273 275 276 277 280 281 284 286 288 288 287 289 294 296 296 293 292 293 295 302 300 304 304 301 300 298 298 297 296 299 297 297 298 303 304 303
257 259 260 263 263 263 266 266 268 269 271 272 274 275 276 279 279 282 286 286 288 286 285 285 293 295 294 295 293 296 298 296 298 299 300 300 298 296 297 296 294 294 296 301 304 304 307
258 261 266 268 270 270 270 271 273 273 272 273 274 274 275 278 280 285 297 299 297 289 286 284 290 291 292 293 297 300 302 299 299 300 298 301 300 300 295 296 301 304 307 306 306 307 310
Height
10774 10776 10777 10779 10781 10782 10784 10785 10786 10787 10788 10789 10789 10789 10790 10790 10789 10789 10789 10790 10790 10790 10790 10789 10789 10788 10787 10787 10787 10787 10787 10786 10786 10785 10784 10782 10780 10777 10775 10773 10770 10767 10764 10761 10758 10754 10751
10770 10772 10774 10776 10778 10780 10781 10783 10785 10785 10786 10786 10787 10786 10786 10786 10785 10785 10785 10785 10786 10786 10786 10786 10786 10785 10785 10786 10786 10786 10785 10785 10784 10783 10782 10780 10778 10775 10772 10769 10766 10763 10760 10757 10753 10750 10747
10767 10769 10771 10773 10775 10777 10779 10781 10782 10783 10783 10783 10783 10783 10782 10781 10780 10779 10779 10780 10781 10781 10782 10782 10783 10782 10783 10784 10784 10784 10783 10783 10782 10781 10779 10777 10775 10772 10769 10766 10762 10758 10756 10753 10750 10746 10742
10763 10765 10767 10770 10772 10774 10777 10778 10779 10780 10780 10780 10780 10779 10777 10776 10774 10772 10773 10774 10774 10776 10777 10779 10779 10779 10780 10781 10781 10781 10781 10781 10779 10778 10775 10773 10771 10768 10765 10761 10757 10754 10750 10747 10744 10740 10736
10759 10761 10763 10766 10769 10771 10773 10774 10776 10776 10777 10777 10776 10775 10773 10769 10764 10763 10765 10767 10768 10770 10773 10774 10775 10776 10777 10778 10778 10778 10778 10777 10776 10774 10772 10769 10767 10764 10760 10756 10753 10749 10745 10741 10737 10734 10730
10754 10757 10760 10763 10766 10768 10769 10771 10772 10773 10773 10773 10772 10771 10767 10760 10755 10754 10756 10759 10762 10765 10768 10770 10771 10772 10773 10774 10774 10774 10774 10773 10772 10769 10767 10765 10763 10759 10756 10752 10748 10744 10739 10736 10731 10728 10724
10750 10754 10757 10760 10762 10764 10766 10768 10769 10770 10770 10770 10769 10767 10763 10755 10748 10746 10748 10752 10756 10760 10764 10765 10767 10768 10769 10770 10770 10770 10769 10768 10766 10765 10763 10761 10758 10754 10750 10746 10742 10738 10734 10730 10725 10720 10716
10748 10751 10753 10756 10759 10761 10763 10765 10766 10767 10767 10767 10765 10764 10761 10754 10748 10745 10746 10748 10752 10756 10759 10761 10764 10765 10767 10767 10766 10765 10764 10763 10761 10760 10758 10755 10751 10748 10744 10740 10736 10731 10726 10722 10717 10714 10707
10745 10748 10751 10753 10756 10758 10760 10762 10763 10764 10764 10763 10762 10762 10760 10756 10752 10748 10747 10748 10751 10754 10757 10760 10762 10763 10763 10762 10761 10760 10758 10757 10755 10754 10751 10748 10744 10741 10737 10734 10729 10725 10720 10715 10710 10706 10700
10743 10745 10748 10750 10753 10755 10757 10759 10760 10760 10760 10760 10759 10760 10759 10757 10756 10753 10752 10751 10752 10754 10757 10758 10759 10759 10758 10758 10757 10755 10753 10752 10749 10747 10744 10740 10737 10733 10730 10726 10721 10717 10713 10707 10702 10697 10690
10739 10742 10745 10747 10749 10751 10753 10755 10756 10757 10757 10757 10757 10757 10757 10757 10756 10755 10754 10754 10754 10755 10756 10756 10756 10755 10754 10753 10752 10750 10748 10745 10742 10739 10736 10732 10729 10725 10721 10716 10713 10709 10704 10700 10695 10690 10683
10735 10738 10740 10743 10745 10747 10750 10751 10753 10753 10753 10754 10754 10754 10755 10755 10754 10754 10754 10753 10753 10753 10753 10752 10752 10751 10750 10748 10746 10744 10740 10737 10734 10730 10726 10722 10719 10716 10712 10707 10702 10698 10694 10691 10687 10682 10676
10731 10733 10736 10739 10742 10744 10746 10747 10749 10750 10750 10751 10751 10751 10751 10751 10751 10751 10751 10750 10750 10749 10749 10748 10747 10745 10743 10740 10738 10736 10732 10728 10726 10722 10716 10711 10709 10706 10703 10698 10693 10689 10685 10682 10679 10673 10668
10726 10729 10732 10735 10737 10739 10741 10743 10745 10746 10746 10747 10748 10748 10748 10748 10747 10747 10747 10746 10745 10744 10742 10741 10739 10737 10735 10733 10729 10727 10723 10720 10716 10713 10710 10701 10694 10695 10691 10688 10684 10679 10676 10672 10670 10665 10660
10721 10724 10727 10730 10733 10735 10737 10738 10740 10741 10742 10742 10743 10743 10743 10743 10743 10742 10741 10740 10739 10738 10736 10734 10732 10729 10727 10725 10722 10719 10714 10710 10706 10703 10699 10695 10682 10681 10680 10677 10674 10669 10664 10660 10657 10653 10649
10715 10718 10722 10725 10728 10730 10731 10733 10734 10735 10737 10737 10737 10738 10738 10737 10736 10735 10735 10734 10732 10730 10728 10726 10724 10721 10719 10715 10712 10708 10704 10700 10696 10692 10689 10686 10679 10669 10667 10666 10662 10658 10654 10650 10645 10642 10638
10708 10713 10717 10720 10722 10724 10726 10727 10729 10730 10731 10732 10732 10732 10732 10731 10730 10729 10728 10726 10724 10722 10720 10717 10715 10713 10710 10706 10701 10697 10692 10689 10685 10683 10679 10676 10668 10659 10657 10656 10650 10645 10639 10636 10631 10627 10622
10704 10707 10711 10714 10717 10718 10720 10722 10723 10724 10724 10725 10725 10725 10724 10723 10722 10721 10719 10718 10715 10713 10710 10708 10705 10703 10700 10696 10691 10685 10681 10675 10673 10671 10668 10663 10660 10653 10643 10645 10640 10634 10625 10622 10618 10616 10608
10698 10702 10705 10708 10710 10711 10713 10715 10716 10717 10717 10717 10717 10717 10716 10715 10714 10711 10709 10706 10703 10701 10698 10695 10693 10690 10686 10680 10677 10674 10669 10665 10661 10658 10656 10654 10647 10646 10637 10629 10629 10623 10610 10606 10605 10599 10595
10693 10697 10699 10701 10702 10704 10706 10707 10707 10708 10708 10708 10708 10708 10706 10705 10703 10701 10698 10695 10692 10687 10685 10682 10679 10676 10672 10666 10665 10665 10660 10656 10650 10646 10644 10643 10636 10630 10628 10622 10619 10614 10601 10592 10588 10583 10582
10686 10689 10691 10693 10694 10695 10697 10697 10698 10697 10698 10699 10698 10698 10696 10695 10692 10690 10688 10686 10682 10679 10674 10671 10668 10665 10661 10658 10657 10651 10650 10646 10642 10636 10632 10630 10627 10619 10614 10603 10604 10602 10588 10580 10574 10562 10561
10680 10682 10683 10685 10686 10687 10688 10687 10688 10688 10688 10688 10688 10687 10686 10684 10681 10678 10676 10675 10672 10669 10665 10661 10658 10656 10651 10648 10647 10644 10640 10635 10631 10626 10619 10616 10612 10606 10607 10591 10586 10589 10569 10563 10556 10544 10539
10672 10673 10674 10676 10676 10678 10678 10678 10677 10679 10679 10679 10677 10676 10674 10673 10669 10666 10664 10663 10662 10658 10655 10650 10647 10645 10639 10637 10634 10632 10628 10624 10621 10614 10606 10600 10590 10587 10591 10579 10576 10574 10559 10548 10539 10529 10520
10663 10664 10666 10666 10666 10668 10668 10668 10667 10667 10668 10667 10666 10665 10664 10662 10657 10653 10652 10651 10649 10647 10646 10638 10635 10633 10628 10624 10621 10619 10614 10610 10603 10598 10589 10581 10572 10568 10568 10561 10564 10553 10539 10529 10525 10514 10501
10653 10654 10654 10654 10656 10658 10658 10658 10658 10657 10657 10657 10656 10655 10655 10654 10647 10639 10640 10638 10636 10631 10629 10625 10618 10616 10613 10607 10604 10604 10600 10595 10587 10582 10570 10557 10550 10542 10541 10540 10545 10532 10513 10503 10501 10501 10478
10642 10643 10644 10644 10645 10646 10647 10648 10647 10646 10645 10644 10642 10642 10643 10643 10634 10628 10626 10621 10621 10616 10613 10607 10603 10599 10593 10586 10586 10585 10581 10575 10574 10568 10557 10542 10531 10522 10515 10511 10515 10504 10487 10481 10473 10475 10456
10629 10631 10632 10632 10632 10632 10634 10633 10633 10632 10630 10629 10628 10627 10628 10630 10622 10615 10610 10608 10601 10597 10596 10592 10585 10580 10569 10569 10566 10564 10563 10555 10552 10545 10534 10524 10512 10503 10490 10484 10489 10468 10465 10454 10447 10438 10427
10616 10617 10617 10617 10619 10619 10619 10618 10618 10616 10615 10613 10612 10611 10612 10612 10604 10600 10595 10590 10585 10579 10574 10574 10569 10559 10555 10551 10546 10542 10545 10537 10532 10523 10510 10499 10487 10480 10470 10458 10452 10449 10435 10428 10417 10399 10388
10602 10603 10604 10604 10604 10604 10603 10601 10601 10599 10598 10596 10594 10592 10592 10593 10589 10583 10576 10571 10567 10560 10554 10551 10542 10537 10537 10531 10527 10522 10519 10515 10508 10505 10486 10475 10460 10453 10437 10438 10418 10406 10398 10389 10376 10364 10352